Location: Ammerl�gen
(47.2167°N, 9.6000°E)
Time: 20:34:52
(UTC+00:00)

DMSP 5D-2 F13 DEB - Pass Details

Date: 30 October 2021
Orbit: 758 x 780 km, 98.7° (Epoch: 03 December)

Event Time Altitude Azimuth Distance (km) Brightness Sun altitude
Exits shadow 17:33:52 15° 44° (NE) 1,996 ? -15.1°
Drops below altitude 10° 17:35:49 10° 22° (NNE) 2,299 ? -15.4°
Sets 17:39:03 0° 0° (N) 3,229 ? -15.9°
